sat.trackr.live / text

‹ back to catalog

HAIYANG-2D

NORAD 48621 · 2021-043A

PAYLOAD ACTIVE UNKNOWN

§ Identity

Operator
Country
PRC
Launch date
2021-05-19
Launch site
JSC
Launch vehicle
Mass (kg)
RCS (m²)

External: N2YO · Heavens-Above · Gunter

§ Orbital elements

Epoch: 2026-05-25T03:47:45.271968Z

Period
104.09 min
Inclination
66.0003°
Eccentricity
0.0011343
Mean motion
13.83373649 rev/d
Perigee alt
943.6 km
Apogee alt
960.3 km
Semi-major
7,330.1 km
B*
-3.4458e-5
RAAN
2.0350°
Arg perigee
271.9172°
Mean anomaly
88.0597°
Rev number
25,336

§ Raw data

HAIYANG-2D1 48621U 21043A   26145.15816287 -.00000119  00000+0 -34458-4 0  99972 48621  66.0003   2.0350 0011343 271.9172  88.0597 13.83373649253362

JSON: /api/v1/satellites/48621 · /tle

For live sub-satellite position, see the globe view (requires WebGL).

§ Visibility from observer

Set your observer location to see the next 7 days of passes ≥ 10°. The values pass through the URL so the page stays shareable.

No JS? Fill the form by hand. The geolocation button needs JavaScript.

§ Radio — SatNOGS DB

ModeDescriptionDownlinkUplink
FM S-band telemetry 2.237 GHz

1 transmitter · refreshed weekly from db.satnogs.org